Hoonah, AK

12:36 AM AKDT on August 24, 2017 (GMT -0800)
Hoonah

Weather History for PAOH - October, 2013

Change the Weather History Date:

Thursday, October 10, 2013

  Actual Average Record
Temperature  
Mean Temperature 48 °F -  
Max Temperature 54 °F 47 °F 57 °F (2014)
Min Temperature 41 °F 37 °F 24 °F (2002)
Degree Days  
Heating Degree Days 18    
Moisture  
Dew Point 43 °F    
Average Humidity 91    
Maximum Humidity 100    
Minimum Humidity 62    
Precipitation  
Precipitation 0.00 in - - ()
Sea Level Pressure  
Sea Level Pressure 29.88 in    
Wind  
Wind Speed 1 mph (WSW)    
Max Wind Speed 8 mph    
Max Gust Speed -    
Visibility 8 miles    
Events Rain    
Averages and records for this station are not official NWS values.
T = Trace of Precipitation, MM = Missing Value Source: NWS Daily Summary

Daily Weather History Graph

Daily Weather History Graph

Search for Another Location

Airport or City:

Trip Planner

Search our weather history database for the weather conditions in past years. The results will help you decide how hot, cold, wet, or windy it might be!

Date:

Astronomy

Oct. 10, 2013 Rise Set
Actual Time 7:26 AM AKDT 6:09 PM AKDT
Civil Twilight 6:47 AM AKDT 6:48 PM AKDT
Nautical Twilight 6:01 AM AKDT 7:33 PM AKDT
Astronomical Twilight 5:15 AM AKDT 8:20 PM AKDT
Moon 2:15 PM AKDT (10/10) 10:07 PM AKDT (10/10)
Length of Visible Light 12h 01m
Length of Day
10h 42m
Waxing Crescent, 37% of the Moon is Illuminated
Oct 10
Waxing Crescent
Oct 11
First Quarter
Oct 18
Full
Oct 26
Last Quarter
Nov 3
New

Hourly Weather History & Observations

Time (AKDT) Temp. Windchill Dew Point Humidity Pressure Visibility Wind Dir Wind Speed Gust Speed Precip Events Conditions
12:56 AM 41.9 °F - 41.9 °F 100% 29.77 in 10.0 mi Calm Calm - N/A   Overcast
1:40 AM 42.8 °F - 42.8 °F 100% 29.77 in 1.8 mi Calm Calm - 0.00 in   Overcast
1:56 AM 41.9 °F - 41.9 °F 100% 29.78 in 4.0 mi Calm Calm - 0.00 in   Overcast
2:10 AM 42.8 °F - 42.8 °F 100% 29.78 in 2.5 mi Calm Calm - 0.00 in   Overcast
2:22 AM 42.8 °F - 42.8 °F 100% 29.78 in 10.0 mi Calm Calm - 0.00 in   Overcast
2:56 AM 41.9 °F - 41.9 °F 100% 29.79 in 2.5 mi Calm Calm - 0.00 in   Mostly Cloudy
3:26 AM 42.8 °F 41.1 °F 42.8 °F 100% 29.79 in 4.0 mi East 3.5 mph - N/A   Overcast
3:56 AM 42.8 °F - 42.8 °F 100% 29.80 in 5.0 mi Calm Calm - N/A   Overcast
4:56 AM 43.0 °F - 43.0 °F 100% 29.81 in 6.0 mi Calm Calm - N/A   Overcast
5:56 AM 45.0 °F - 45.0 °F 100% 29.83 in 10.0 mi Calm Calm - N/A   Overcast
6:56 AM 44.6 °F 43.1 °F 44.6 °F 100% 29.84 in 10.0 mi SSW 3.5 mph - N/A   Overcast
7:56 AM 45.9 °F - 43.9 °F 93% 29.86 in 10.0 mi Calm Calm - N/A   Overcast
8:56 AM 46.9 °F - 45.0 °F 93% 29.88 in 10.0 mi Calm Calm - N/A   Mostly Cloudy
9:56 AM 47.8 °F - 43.9 °F 86% 29.90 in 10.0 mi NW 3.5 mph - N/A   Scattered Clouds
10:56 AM 50.0 °F - 43.9 °F 79% 29.91 in 10.0 mi WNW 3.5 mph - N/A   Partly Cloudy
11:56 AM 54.0 °F - 41.0 °F 62% 29.93 in 10.0 mi SW 8.1 mph - N/A   Partly Cloudy
12:56 PM 51.8 °F - 41.0 °F 67% 29.93 in 10.0 mi Variable 4.6 mph - N/A   Scattered Clouds
1:56 PM 52.9 °F - 41.9 °F 66% 29.95 in 10.0 mi WSW 6.9 mph - N/A   Mostly Cloudy
2:56 PM 50.9 °F - 41.9 °F 71% 29.95 in 10.0 mi SW 5.8 mph - N/A   Mostly Cloudy
3:56 PM 51.8 °F - 42.8 °F 71% 29.95 in 10.0 mi Variable 4.6 mph - N/A   Mostly Cloudy
4:56 PM 47.8 °F - 43.9 °F 86% 29.95 in 10.0 mi Calm Calm - 0.00 in   Partly Cloudy
5:56 PM 46.9 °F - 43.9 °F 89% 29.95 in 10.0 mi Calm Calm - N/A   Overcast
6:56 PM 46.4 °F - 44.6 °F 93% 29.95 in 10.0 mi Calm Calm - N/A   Overcast
7:56 PM 45.9 °F - 45.0 °F 97% 29.97 in 10.0 mi Calm Calm - N/A   Mostly Cloudy
8:56 PM 45.0 °F - 45.0 °F 100% 29.98 in 10.0 mi Calm Calm - N/A   Overcast
9:56 PM 44.6 °F - 44.6 °F 100% 29.98 in 10.0 mi Calm Calm - N/A   Overcast
10:56 PM 45.0 °F - 43.9 °F 96% 29.99 in 9.0 mi Calm Calm - N/A   Overcast
11:56 PM 43.9 °F - 43.9 °F 100% 29.99 in 8.0 mi Calm Calm - 0.00 in Rain Light Rain